Weather History for Arbor Vitae, WI

Change the Weather History Date:

Thursday, February 21, 2013

  Actual Average Record
Temperature  
Mean Temperature 13 °F -  
Max Temperature 28 °F 31 °F 51 °F (1930)
Min Temperature -2 °F 6 °F -31 °F (1936)
Degree Days  
Heating Degree Days 52    
Moisture  
Dew Point 9 °F    
Average Humidity 77    
Maximum Humidity 86    
Minimum Humidity 55    
Precipitation  
Precipitation 0.00 in - - ()
Sea Level Pressure  
Sea Level Pressure 30.29 in    
Wind  
Wind Speed 4 mph (NE)    
Max Wind Speed 9 mph    
Max Gust Speed 17 mph    
Visibility 9 miles    
Events Snow    
Averages and records for this station are not official NWS values.
T = Trace of Precipitation, MM = Missing Value Source: NWS Daily Summary

Daily Weather History Graph

Daily Weather History Graph

Search for Another Location

Airport:

Trip Planner

Search our weather history database for the weather conditions in past years. The results will help you decide how hot, cold, wet, or windy it might be!

Date:

Astronomy

Feb. 21, 2013 Rise Set
Actual Time 6:51 AM CST 5:34 PM CST
Civil Twilight 6:20 AM CST 6:04 PM CST
Nautical Twilight 5:46 AM CST 6:39 PM CST
Astronomical Twilight 5:11 AM CST 7:14 PM CST
Moon 1:41 PM CST (2/21) 4:04 AM CST (2/21)
Length of Visible Light 11h 43m
Length of Day
10h 43m
Waxing Gibbous, 84% of the Moon is Illuminated
Feb 21
Waxing Gibbous
Feb 25
Full
Mar 4
Last Quarter
Mar 11
New
Mar 19
First Quarter

Hourly Weather History & Observations

Time (CST) Temp. Windchill Dew Point Humidity Pressure Visibility Wind Dir Wind Speed Gust Speed Precip Events Conditions
12:15 AM 1.4 °F - -4.0 °F 78% 30.32 in 10.0 mi Calm Calm - N/A   Clear
12:35 AM 3.2 °F -6.2 °F -0.4 °F 85% 30.32 in 10.0 mi NE 4.6 mph - N/A   Clear
12:55 AM 5.0 °F - -0.4 °F 78% 30.32 in 10.0 mi Calm Calm - N/A   Clear
1:15 AM 3.2 °F - -0.4 °F 85% 30.33 in 10.0 mi Calm Calm - N/A   Clear
1:35 AM -0.4 °F - -5.8 °F 78% 30.34 in 10.0 mi Calm Calm - N/A   Clear
1:55 AM -0.4 °F - -4.0 °F 85% 30.35 in 10.0 mi Calm Calm - N/A   Clear
2:15 AM 1.4 °F - -2.2 °F 85% 30.35 in 10.0 mi Calm Calm - N/A   Clear
2:35 AM -2.2 °F - -5.8 °F 85% 30.35 in 10.0 mi Calm Calm - N/A   Clear
2:55 AM -0.4 °F -10.4 °F -4.0 °F 85% 30.34 in 10.0 mi NE 4.6 mph - N/A   Clear
3:15 AM 3.2 °F -6.2 °F -0.4 °F 85% 30.35 in 10.0 mi NNE 4.6 mph - N/A   Clear
3:35 AM 5.0 °F -5.6 °F 1.4 °F 85% 30.35 in 10.0 mi NE 5.8 mph - N/A   Mostly Cloudy
3:55 AM 5.0 °F -4.1 °F 1.4 °F 85% 30.35 in 10.0 mi NE 4.6 mph - N/A   Overcast
4:15 AM 5.0 °F -4.1 °F 1.4 °F 85% 30.36 in 10.0 mi North 4.6 mph - N/A   Overcast
4:35 AM 5.0 °F -2.1 °F 1.4 °F 85% 30.38 in 10.0 mi North 3.5 mph - N/A Snow Light Snow
4:55 AM 5.0 °F - 1.4 °F 85% 30.39 in 10.0 mi Calm Calm - N/A   Overcast
5:15 AM 5.0 °F -2.1 °F 1.4 °F 85% 30.39 in 10.0 mi North 3.5 mph - N/A   Overcast
5:55 AM 5.0 °F -2.1 °F 1.4 °F 85% 30.40 in 10.0 mi NNE 3.5 mph - N/A Snow Light Snow
6:15 AM 5.0 °F - 1.4 °F 85% 30.39 in 10.0 mi Calm Calm - N/A   Overcast
6:35 AM 5.0 °F -4.1 °F 1.4 °F 85% 30.38 in 10.0 mi NNE 4.6 mph - N/A   Overcast
6:55 AM 5.0 °F -6.9 °F 1.4 °F 85% 30.38 in 7.0 mi NNE 6.9 mph - N/A Snow Light Snow
7:15 AM 5.0 °F -9.1 °F 1.4 °F 85% 30.36 in 10.0 mi NE 9.2 mph - N/A Snow Light Snow
7:35 AM 6.8 °F -4.8 °F 3.2 °F 85% 30.34 in 10.0 mi NE 6.9 mph - N/A   Overcast
7:55 AM 6.8 °F -6.9 °F 3.2 °F 85% 30.32 in 10.0 mi NE 9.2 mph - N/A   Overcast
8:15 AM 8.6 °F -4.7 °F 5.0 °F 85% 30.28 in 5.0 mi NE 9.2 mph 16.1 mph N/A Snow Light Snow
8:35 AM 10.4 °F 0.8 °F 5.0 °F 79% 30.31 in 3.0 mi ENE 5.8 mph 17.3 mph N/A Snow Light Snow
8:55 AM 12.2 °F 4.3 °F 8.6 °F 85% 30.38 in 0.5 mi SSE 4.6 mph - N/A Snow Snow
9:15 AM 12.2 °F - 8.6 °F 85% 30.40 in 0.5 mi Calm Calm - N/A Snow Light Snow
9:35 AM 12.2 °F - 8.6 °F 85% 30.40 in 2.0 mi Calm Calm - N/A Snow Light Snow
9:55 AM 12.2 °F 6.1 °F 8.6 °F 85% 30.39 in 4.0 mi East 3.5 mph - N/A Snow Light Snow
10:15 AM 12.2 °F 2.9 °F 6.8 °F 79% 30.38 in 10.0 mi NNE 5.8 mph - N/A   Clear
10:35 AM 14.0 °F 5.1 °F 8.6 °F 79% 30.37 in 10.0 mi NE 5.8 mph - N/A   Clear
10:55 AM 17.6 °F 9.3 °F 10.4 °F 73% 30.36 in 10.0 mi ENE 5.8 mph - N/A   Clear
11:15 AM 17.6 °F 10.7 °F 8.6 °F 68% 30.34 in 10.0 mi NE 4.6 mph - N/A   Clear
11:35 AM 19.4 °F 14.3 °F 10.4 °F 68% 30.35 in 10.0 mi NNE 3.5 mph - N/A   Clear
12:15 PM 23.0 °F 18.4 °F 12.2 °F 63% 30.33 in 10.0 mi NE 3.5 mph - N/A   Clear
12:35 PM 23.0 °F 18.4 °F 10.4 °F 59% 30.34 in 10.0 mi NNW 3.5 mph - N/A   Clear
12:55 PM 23.0 °F - 10.4 °F 59% 30.32 in 10.0 mi Calm Calm - N/A   Clear
1:15 PM 24.8 °F - 12.2 °F 59% 30.30 in 10.0 mi Calm Calm - N/A   Clear
1:35 PM 26.6 °F 21.2 °F 12.2 °F 55% 30.29 in 10.0 mi ESE 4.6 mph - N/A   Clear
1:55 PM 28.4 °F 22.2 °F 14.0 °F 55% 30.28 in 10.0 mi ENE 5.8 mph - N/A   Clear
2:15 PM 28.4 °F 21.2 °F 14.0 °F 55% 30.28 in 10.0 mi ENE 6.9 mph - N/A   Clear
2:35 PM 28.4 °F 21.2 °F 14.0 °F 55% 30.28 in 10.0 mi NE 6.9 mph - N/A   Clear
2:55 PM 28.4 °F 22.2 °F 14.0 °F 55% 30.26 in 10.0 mi NE 5.8 mph - N/A   Clear
3:15 PM 28.4 °F 20.4 °F 15.8 °F 59% 30.25 in 10.0 mi ENE 8.1 mph - N/A   Clear
3:35 PM 28.4 °F 23.3 °F 17.6 °F 64% 30.25 in 10.0 mi NE 4.6 mph - N/A   Clear
3:55 PM 28.4 °F 21.2 °F 15.8 °F 59% 30.25 in 10.0 mi ENE 6.9 mph - N/A   Clear
4:15 PM 28.4 °F 23.3 °F 15.8 °F 59% 30.25 in 10.0 mi NNE 4.6 mph - N/A   Clear
4:35 PM 28.4 °F 20.4 °F 15.8 °F 59% 30.25 in 10.0 mi NNE 8.1 mph - N/A   Clear
4:55 PM 26.6 °F 21.2 °F 15.8 °F 64% 30.25 in 10.0 mi NE 4.6 mph - N/A   Clear
5:15 PM 24.8 °F 16.9 °F 15.8 °F 69% 30.25 in 10.0 mi NNE 6.9 mph - N/A   Clear
5:35 PM 23.0 °F 15.8 °F 15.8 °F 74% 30.24 in 10.0 mi NNE 5.8 mph - N/A   Clear
5:55 PM 23.0 °F 14.7 °F 15.8 °F 74% 30.24 in 10.0 mi NNE 6.9 mph - N/A   Clear
6:15 PM 23.0 °F 15.8 °F 14.0 °F 68% 30.24 in 10.0 mi NNE 5.8 mph - N/A   Clear
6:35 PM 23.0 °F 15.8 °F 15.8 °F 74% 30.23 in 10.0 mi NNE 5.8 mph - N/A   Clear
6:55 PM 23.0 °F 14.7 °F 15.8 °F 74% 30.22 in 10.0 mi NE 6.9 mph - N/A   Clear
7:15 PM 21.2 °F 13.6 °F 15.8 °F 80% 30.21 in 10.0 mi NE 5.8 mph - N/A   Clear
7:35 PM 21.2 °F 13.6 °F 17.6 °F 86% 30.21 in 10.0 mi ENE 5.8 mph 9.2 mph N/A   Clear
7:55 PM 21.2 °F 14.9 °F 17.6 °F 86% 30.20 in 10.0 mi ENE 4.6 mph - N/A   Clear
8:15 PM 23.0 °F 13.9 °F 17.6 °F 80% 30.19 in 10.0 mi ENE 8.1 mph - N/A   Mostly Cloudy
8:35 PM 23.0 °F 14.7 °F 17.6 °F 80% 30.20 in 10.0 mi ENE 6.9 mph - N/A   Overcast
8:55 PM 23.0 °F 14.7 °F 17.6 °F 80% 30.19 in 10.0 mi ENE 6.9 mph - N/A   Overcast
9:15 PM 23.0 °F 14.7 °F 17.6 °F 80% 30.18 in 10.0 mi ENE 6.9 mph - N/A   Overcast
9:35 PM 23.0 °F 14.7 °F 19.4 °F 86% 30.17 in 10.0 mi East 6.9 mph - N/A   Overcast
9:55 PM 21.2 °F 10.9 °F 17.6 °F 86% 30.15 in 10.0 mi East 9.2 mph - N/A   Overcast
10:15 PM 21.2 °F 11.7 °F 17.6 °F 86% 30.15 in 10.0 mi East 8.1 mph - N/A   Overcast
10:35 PM 21.2 °F 11.7 °F 17.6 °F 86% 30.14 in 10.0 mi East 8.1 mph - N/A   Overcast
10:55 PM 21.2 °F 13.6 °F 17.6 °F 86% 30.13 in 10.0 mi East 5.8 mph 16.1 mph N/A   Overcast
11:15 PM 21.2 °F 12.6 °F 17.6 °F 86% 30.12 in 10.0 mi ESE 6.9 mph - N/A   Overcast
11:35 PM 21.2 °F 12.6 °F 17.6 °F 86% 30.11 in 10.0 mi East 6.9 mph - N/A   Overcast
11:55 PM 23.0 °F 14.7 °F 19.4 °F 86% 30.10 in 10.0 mi East 6.9 mph 16.1 mph N/A   Overcast